Location: Unspecified
(0.0000°N, 0.0000°E)
Time: 18:53:07
(UTC+00:00)

XW-2D - Visible Passes

Search period start: 06 December 2019 00:00
Search period end: 16 December 2019 00:00
Orbit: 508 x 527 km, 97.5° (Epoch: 06 December)

Date Brightness Start Highest point End Pass type
(mag) Time Alt. Az. Time Alt. Az. Time Alt. Az.
06 Dec ? 05:20:51 10° NNE 05:24:34 52° ESE 05:28:16 10° S visible
07 Dec ? 05:07:01 10° NE 05:10:24 30° ESE 05:13:46 10° SSE visible
08 Dec ? 04:53:33 10° NE 04:56:15 18° ESE 04:58:56 10° SSE visible
08 Dec ? 18:20:40 10° SW 18:23:00 16° WSW 18:25:20 10° WNW visible
09 Dec ? 04:40:56 10° E 04:42:06 11° ESE 04:43:14 10° ESE visible
13 Dec ? 05:15:39 10° NNE 05:19:15 42° E 05:22:51 10° S visible
14 Dec ? 05:01:55 10° NE 05:05:04 25° E 05:08:13 10° SSE visible
14 Dec ? 18:30:27 10° WSW 18:31:48 12° WSW 18:33:10 10° W visible
15 Dec ? 04:48:39 10° ENE 04:50:54 15° ESE 04:53:10 10° SE visible
